SCP
0 0 0 0 0 0 0 0 0 0 0 0 0 0 0 0 0 0 0 -0 -0 -0 0 0 0 0 0 0 0 0 0 0 0 0 0 0 0 0 0 0 1 1 1 0
0 0 0 0 0 0 0 0 0 0 0 0 0 0 0 0 0 0 0 0 0 0 0 0 0 0 0 0 0 0 0 0 0 0 0 0 0 0 0 0 0 0 0 0
0 0 0 0 0 0 0 0 0 0 0 0 0 0 0 0 0 0 0 0 0 0 0 0 0 0 0 0 0 0 0 0 0 0 0 0 0 0 0 0 0 0 0 0
0 0 0 0 0 0 0 0 0 0 0 0 0 0 0 0 0 0 0 0 0 0 0 0 0 0 0 0 0 0 0 0 0 0 0 0 0 0 0 0 0 0 0 0
0 0 0 0 0 0 0 0 0 0 0 0 0 0 0 0 0 0 0 0 0 0 0 0 0 0 0 0 0 0 0 0 0 0 0 0 0 0 0 0 0 0 0 0
0 0 0 0 0 0 0 0 0 0 0 0 0 0 0 0 0 0 0 0 0 0 0 0 0 0 0 0 0 0 0 0 0 0 0 0 0 0 0 0 0 0 0 0
0 0 0 0 0 0 0 0 0 0 0 0 0 0 0 0 0 0 0 0 0 0 0 0 0 0 0 0 0 0 0 0 0 0 0 0 0 0 0 0 0 0 0 0
0 0 0 0 0 0 0 0 0 0 0 0 0 0 0 0 0 0 0 0 0 0 0 0 0 0 0 0 0 0 0 0 0 0 0 0 0 0 0 0 0 0 0 0
0 0 0 0 0 0 0 0 0 0 0 0 0 0 0 0 0 0 0 0 0 0 0 0 0 0 0 0 0 0 0 0 0 0 0 0 0 0 0 0 0 0 0 0
0 0 0 0 0 0 0 0 0 0 0 0 0 0 0 0 0 0 0 0 0 0 0 0 0 0 0 0 0 0 0 0 0 0 0 0 0 0 0 0 0 0 0 0
0 0 0 0 0 0 0 0 0 0 0 0 0 0 0 0 0 0 0 0 0 0 0 0 0 0 0 0 0 0 0 0 0 0 0 0 0 0 0 0 0 0 0 0
0 0 0 0 0 0 0 0 0 0 0 0 0 0 0 0 0 0 0 0 0 0 0 0 0 0 0 0 0 0 0 0 0 0 0 0 0 0 0 0 0 0 0 0
0 0 0 0 0 0 0 0 0 0 0 0 0 0 0 0 0 0 0 0 0 0 0 0 0 0 0 0 0 0 0 0 0 0 0 0 0 0 0 0 0 0 0 0
0 0 0 0 0 0 0 0 0 0 0 0 0 0 0 0 0 0 0 0 0 0 0 0 0 0 0 0 0 0 0 0 0 0 0 0 0 0 0 0 0 0 0 0
0 0 0 0 0 0 0 0 0 0 0 0 0 0 0 0 0 0 0 0 0 0 0 0 0 0 0 0 0 0 0 0 0 0 0 0 0 0 0 0 0 0 0 0
0 0 0 0 0 0 0 0 0 0 0 0 0 0 0 0 0 0 0 0 0 0 0 0 0 0 0 0 0 0 0 0 0 0 0 0 0 0 0 0 0 0 0 0
0 0 0 0 0 0 0 0 0 0 0 0 0 0 0 0 0 0 0 0 0 0 0 0 0 0 0 0 0 0 0 0 0 0 0 0 0 0 0 0 0 0 0 0
0 0 0 0 0 0 0 0 0 0 0 0 0 0 0 0 0 0 0 0 0 0 0 0 0 0 0 0 0 0 0 0 0 0 0 0 0 0 0 0 0 0 0 0
0 0 0 0 0 0 0 0 0 0 0 0 0 0 0 0 0 0 0 0 0 0 0 0 0 0 0 0 0 0 0 0 0 0 0 0 0 0 0 0 0 0 0 0
0 0 0 0 0 0 0 0 0 0 0 0 0 0 0 0 0 0 0 0 0 0 0 0 0 0 0 0 0 0 0 0 0 0 0 0 0 0 0 0 0 0 0 0
0 0 0 0 0 0 0 0 0 0 0 0 0 0 0 0 0 0 0 0 0 0 0 0 0 0 0 0 0 0 0 0 0 0 0 0 0 0 0 0 0 0 0 0
0 0 0 0 0 0 0 0 0 0 0 0 0 0 0 0 0 0 0 0 0 0 0 0 0 0 0 0 0 0 0 0 0 0 0 0 0 0 0 0 0 0 0 0
0 0 0 0 0 0 0 0 0 0 0 0 0 0 0 0 0 0 0 0 0 0 0 0 0 0 0 0 0 0 0 0 0 0 0 0 0 0 0 0 0 0 0 0
0 0 0 0 0 0 0 0 0 0 0 0 0 0 0 0 0 0 0 0 0 0 0 0 0 0 0 0 0 0 0 0 0 0 0 0 0 0 0 0 0 0 0 0
0 0 0 0 0 0 0 0 0 0 0 0 0 0 0 0 0 0 0 0 0 0 0 0 0 0 0 0 0 0 0 0 0 0 0 0 0 0 0 0 0 0 0 0
0 0 0 0 0 0 0 0 0 0 0 0 0 0 0 0 0 0 0 0 0 0 0 0 0 0 0 0 0 0 0 0 0 0 0 0 0 0 0 0 0 0 0 0
0 0 0 0 0 0 0 0 0 0 0 0 0 0 0 0 0 0 0 0 0 0 0 0 0 0 0 0 0 0 0 0 0 0 0 0 0 0 0 0 0 0 0 0
Wind_Speed
11 9 6 4 5 6 6 8 10 10 5 4 4 6 8 10 12 12 11 11 11 11 11 11 11 11 11 11 11 11 12 12 11 12 12 12 13 13 13 13 12 11 11 11
9 4 1 3 5 4 4 5 6 6 1 4 6 8 10 11 12 13 13 13 14 14 15 15 15 15 15 14 14 13 13 14 13 13 13 13 13 13 13 13 12 11 11 11
7 2 7 3 6 7 6 5 8 8 5 8 11 12 13 15 15 14 14 16 18 18 17 17 17 16 17 16 16 15 16 16 15 14 14 13 13 13 13 13 12 11 10 10
8 7 7 8 5 6 8 5 4 5 7 10 13 15 16 17 14 14 17 19 19 18 19 18 18 18 17 17 17 17 17 17 16 15 15 14 14 13 13 12 11 10 9 9
6 9 3 6 5 8 10 10 2 6 12 15 17 19 17 12 14 18 20 20 19 19 20 19 19 18 18 18 18 18 18 17 17 16 16 15 15 14 13 12 11 10 9 8
6 10 5 6 6 7 8 7 3 12 17 19 20 18 15 18 20 21 21 19 20 20 21 20 19 18 19 19 19 18 18 17 17 16 16 16 16 15 13 12 12 10 9 8
7 6 5 6 7 9 10 10 14 17 18 19 20 19 21 22 22 21 21 22 22 21 20 19 19 19 20 20 19 19 18 17 17 17 16 17 16 14 13 13 12 10 9 8
6 5 4 6 8 8 11 14 16 18 20 21 21 22 23 23 23 23 23 23 22 20 19 19 19 19 20 20 19 19 18 18 18 17 16 15 14 14 13 13 12 10 9 7
6 5 4 6 8 10 12 15 18 19 21 22 23 23 24 24 23 23 23 23 21 22 21 20 19 19 21 20 19 19 18 18 17 17 15 15 15 14 12 11 10 9 7 6
3 2 5 9 9 11 14 17 19 20 21 22 24 25 25 23 22 23 23 22 21 22 22 21 20 20 20 20 18 18 18 17 15 15 15 14 12 11 10 10 10 8 7 6
6 5 10 8 13 16 18 19 20 21 22 23 25 25 25 23 23 22 22 21 21 20 21 22 21 20 20 19 18 17 17 15 14 14 14 12 12 11 11 11 9 8 7 5
7 8 11 15 16 18 19 20 21 23 24 23 24 25 25 23 22 22 22 22 21 22 22 22 21 20 19 18 17 16 14 14 12 11 11 10 10 10 11 13 10 9 9 7
7 11 14 17 18 19 19 22 23 23 24 25 23 23 24 23 22 23 23 24 23 23 22 22 21 21 19 17 15 14 14 13 11 11 10 10 9 10 9 9 13 14 14 13
9 12 15 17 19 19 21 22 23 24 23 23 23 23 23 23 23 24 24 24 23 23 22 22 21 20 18 17 15 14 14 13 12 10 10 9 9 9 8 8 8 8 11 14
10 13 16 18 19 20 21 22 24 23 24 23 23 23 23 24 24 24 23 23 22 22 21 21 20 20 18 16 14 14 12 10 9 9 9 9 9 8 8 9 8 6 6 8
14 15 16 18 20 22 23 24 24 24 24 24 24 23 24 24 24 23 23 22 21 21 21 20 20 19 17 15 13 12 10 14 13 9 8 8 8 8 7 7 8 7 7 7
14 16 18 19 21 22 23 23 23 24 24 24 25 25 24 24 23 22 22 21 21 21 21 20 18 16 15 13 11 9 8 9 12 9 8 8 7 7 7 7 7 7 7 9
13 15 17 19 20 22 23 23 23 24 23 24 24 23 23 23 22 22 22 22 21 20 19 18 16 15 14 12 9 8 7 7 6 6 6 7 6 6 6 6 7 8 8 11
14 16 18 19 20 20 21 22 22 23 23 22 22 22 22 22 22 22 21 21 20 19 17 16 17 16 13 11 11 7 7 7 6 6 6 5 5 5 5 6 6 7 9 11
14 16 18 20 20 20 20 21 21 21 20 21 21 21 21 21 21 21 20 18 15 13 15 16 16 12 11 9 9 6 5 5 5 5 4 4 4 4 5 6 7 9 10 11
15 16 18 19 19 20 20 20 20 20 20 21 21 21 21 21 21 19 17 15 16 16 16 15 11 9 8 8 8 5 4 4 4 3 2 2 3 4 5 6 7 9 10 11
14 15 17 18 18 19 18 18 18 20 21 20 21 20 20 20 20 18 17 13 15 17 14 10 9 10 11 10 5 4 3 3 2 2 2 2 2 3 5 7 8 9 10 11
13 14 16 17 17 18 18 17 18 18 19 20 20 20 19 18 15 15 15 14 14 18 14 9 11 13 13 7 4 3 2 2 2 1 1 2 3 4 6 8 9 10 10 11
13 14 15 15 16 16 17 18 18 16 18 18 18 18 17 14 14 12 13 16 18 18 13 10 12 12 11 5 4 3 2 2 1 1 1 2 4 5 6 8 9 9 11 13
12 13 13 14 14 13 15 16 17 16 17 15 18 18 15 12 13 14 14 17 19 17 13 11 11 11 7 5 4 3 2 2 2 0 2 3 4 6 7 8 9 10 10 11
11 11 10 11 11 11 12 12 13 13 13 14 15 14 14 13 15 14 13 16 19 17 13 10 10 9 7 6 5 4 2 1 1 1 3 4 6 7 7 8 12 10 10 10
10 9 8 9 10 11 11 12 12 13 13 14 15 14 14 14 14 15 16 14 13 13 12 11 10 10 9 8 7 6 4 3 2 3 3 4 5 7 9 10 9 9 9 9
Wind_Direction
287 298 301 322 333 325 308 315 311 329 348 60 10 335 329 326 322 316 314 312 310 307 305 303 302 300 298 299 300 301 301 301 301 302 305 307 310 310 304 291 279 273 263 255
276 278 214 93 28 358 354 339 327 316 331 46 335 321 315 310 305 301 300 300 301 303 305 305 306 304 303 300 297 294 293 293 294 296 298 301 303 305 307 300 288 278 267 256
284 161 219 150 28 2 353 344 326 320 353 337 317 314 311 306 300 300 307 311 311 311 309 307 305 304 301 299 296 293 290 289 289 290 292 294 299 304 304 304 297 283 273 260
292 278 273 74 43 2 334 314 307 309 314 314 308 308 303 294 299 309 313 312 311 309 306 304 304 302 299 297 295 292 289 288 287 286 286 288 290 294 298 297 295 288 277 265
302 300 121 110 29 355 325 306 273 305 318 317 317 308 299 318 328 316 310 308 306 305 304 302 301 301 300 297 294 292 290 289 289 287 286 285 285 287 291 292 288 284 278 267
316 305 334 73 17 337 295 279 58 326 320 319 316 308 316 328 316 308 306 305 304 303 301 299 299 299 296 294 293 292 291 291 290 287 284 282 281 283 284 284 281 277 273 264
326 315 77 41 343 314 299 343 339 322 316 313 312 307 309 310 308 307 304 302 302 300 299 298 298 296 293 291 290 290 290 288 285 282 279 275 274 273 275 275 275 272 268 260
326 320 59 18 337 337 323 320 315 314 313 312 309 306 307 308 307 306 304 303 303 301 298 297 295 293 290 289 291 290 289 286 283 280 278 277 274 271 270 271 267 263 257 252
350 8 25 336 321 319 316 313 314 314 313 310 308 308 308 308 307 306 305 304 303 300 299 298 296 293 291 292 292 289 286 283 281 279 276 273 271 268 265 260 256 258 249 240
282 287 321 318 316 320 322 317 314 312 311 311 310 309 309 308 307 307 305 305 304 302 300 298 298 295 292 292 290 287 284 282 280 277 272 269 266 263 260 257 253 250 244 235
278 317 316 318 330 326 320 314 311 311 311 310 309 308 309 308 307 307 307 305 304 301 299 299 298 295 293 291 289 285 283 281 278 273 270 268 264 259 258 256 252 253 254 239
336 343 317 318 323 319 316 315 314 313 311 310 309 308 309 308 308 308 306 306 303 301 300 300 299 296 293 290 286 282 280 276 271 268 267 263 263 259 241 241 238 223 232 240
313 318 313 312 313 318 316 314 313 312 311 312 312 311 311 309 309 308 306 305 304 303 302 301 299 296 294 293 288 281 276 274 272 268 265 262 259 259 258 238 224 222 217 212
305 308 308 314 317 316 315 315 314 313 313 314 314 314 312 310 309 308 307 307 306 304 302 300 297 295 294 292 289 283 278 273 267 262 259 258 257 256 254 252 237 217 203 197
313 315 312 314 314 317 318 318 317 317 318 318 317 315 314 313 310 309 308 308 306 304 301 300 298 296 295 292 288 282 276 270 264 258 255 254 253 247 243 244 237 216 186 170
315 312 314 318 319 320 320 321 320 319 320 319 318 317 316 312 310 309 310 310 308 305 303 300 297 296 295 292 286 279 271 266 263 261 255 251 244 237 230 228 216 206 191 170
315 318 322 322 321 321 322 322 320 320 320 319 319 318 316 314 312 311 311 310 307 303 301 299 299 299 297 290 283 278 273 265 258 256 251 247 240 229 223 218 205 195 186 165
314 315 319 320 321 321 321 322 321 321 320 320 319 318 316 315 314 312 312 311 308 305 304 306 308 308 303 297 288 279 273 266 255 251 251 246 234 218 212 208 193 189 170 156
318 320 321 322 323 322 321 321 321 321 320 320 319 317 315 314 314 313 313 312 311 310 312 316 313 307 304 299 292 276 271 268 261 255 251 238 221 209 208 200 190 180 162 159
322 323 323 323 324 325 322 322 322 320 320 321 319 317 318 319 318 317 316 313 310 312 315 316 314 311 310 309 304 290 282 275 268 259 248 236 215 204 199 187 181 168 160 164
324 324 325 325 324 324 323 324 321 321 322 323 322 322 322 320 321 321 319 317 318 322 322 316 316 321 322 319 302 289 283 276 270 267 258 236 208 185 179 177 164 158 159 164
325 325 325 324 324 323 324 323 323 325 325 326 326 325 325 324 324 322 320 319 320 324 323 320 325 330 327 316 301 294 282 274 265 255 243 205 183 175 165 154 152 154 156 161
324 324 323 324 324 322 322 326 330 329 327 328 327 329 329 325 323 323 324 324 324 324 323 327 329 326 320 313 310 306 301 295 290 275 231 190 171 157 147 146 146 149 153 158
323 324 323 323 323 322 327 330 329 329 329 329 330 332 330 326 325 326 322 321 325 325 328 331 326 324 315 317 332 345 351 332 314 297 186 154 146 142 142 143 144 149 154 158
323 321 322 326 326 328 328 328 330 332 335 333 334 336 335 330 327 327 328 329 333 332 333 335 332 326 326 342 349 355 356 350 340 338 139 135 136 135 136 139 144 147 152 157
321 319 324 321 325 327 331 332 332 334 335 335 336 336 336 335 333 333 334 335 338 338 341 345 348 344 348 351 3 12 17 35 70 117 107 117 124 126 131 136 140 144 148 153
317 323 325 329 337 339 336 333 333 335 337 340 335 336 339 340 339 339 341 341 342 344 347 351 353 357 1 9 17 19 25 40 59 83 101 111 117 121 129 132 132 135 140 144